Location: Zagreb
(45.8000°N, 16.0000°E)
Time: 13:53:45
(UTC+02:00)

Transit 2A - Pass Details

Date: 11 August 2022
Orbit: 601 x 956 km, 66.7° (Epoch: 25 September)

Event Time Altitude Azimuth Distance (km) Brightness Sun altitude
Rises 19:20:30 0° 337° (NNW) 2,866 9.6 7.5°
Reaches altitude 10° 19:23:43 10° 2° (N) 1,954 8.3 6.9°
Maximum altitude 19:26:08 14° 36° (NE) 1,685 7.6 6.5°
Drops below altitude 10° 19:28:35 10° 70° (ENE) 1,975 7.7 6.1°
Sets 19:31:51 0° 95° (E) 2,916 8.3 5.6°
